Russell, KS

12:53 PM CST on February 08, 2016 (GMT -0600)
Russell Municipal

Weather History for KRSL - February, 2013

Change the Weather History Date:

Wednesday, February 6, 2013

  Actual Average (KHLC) Record (KHLC)
Temperature  
Mean Temperature 47 °F 31 °F  
Max Temperature 61 °F 44 °F 79 °F (2009)
Min Temperature 33 °F 18 °F -17 °F (1985)
Degree Days  
Heating Degree Days 18    
Moisture  
Dew Point 39 °F    
Average Humidity 76    
Maximum Humidity 96    
Minimum Humidity 51    
Precipitation  
Precipitation 0.00 in 0.02 in - ()
Month to date precipitation 0.11  
Year to date precipitation 0.56  
Sea Level Pressure  
Sea Level Pressure 29.88 in    
Wind  
Wind Speed 14 mph (South)    
Max Wind Speed 25 mph    
Max Gust Speed 33 mph    
Visibility 8 miles    
Events      
T = Trace of Precipitation, MM = Missing Value Source: NWS Daily Summary

Daily Weather History Graph

Daily Weather History Graph

Search for Another Location

Airport or City:

Trip Planner

Search our weather history database for the weather conditions in past years. The results will help you decide how hot, cold, wet, or windy it might be!

Date:

Astronomy

Feb. 06, 2013 Rise Set
Actual Time 7:36 AM CST 6:02 PM CST
Civil Twilight 7:08 AM CST 6:30 PM CST
Nautical Twilight 6:36 AM CST 7:02 PM CST
Astronomical Twilight 6:05 AM CST 7:33 PM CST
Moon 4:20 AM CST (2/6) 2:23 PM CST (2/6)
Length of Visible Light 11h 22m
Length of Day
10h 26m
Waning Crescent, 17% of the Moon is Illuminated
Feb 6
Waning Crescent
Feb 10
New
Feb 17
First Quarter
Feb 25
Full
Mar 4
Last Quarter

Hourly Weather History & Observations

Time (CST) Temp. Windchill Dew Point Humidity Pressure Visibility Wind Dir Wind Speed Gust Speed Precip Events Conditions
12:53 AM 37.0 °F 28.9 °F 28.9 °F 73% 30.00 in 10.0 mi SE 12.7 mph - N/A   Clear
1:53 AM 36.0 °F 28.0 °F 28.0 °F 73% 29.99 in 10.0 mi SE 11.5 mph - N/A   Clear
2:53 AM 36.0 °F 28.0 °F 28.0 °F 73% 29.98 in 10.0 mi SE 11.5 mph - N/A   Clear
3:53 AM 37.0 °F 28.5 °F 28.0 °F 70% 29.95 in 10.0 mi SSE 13.8 mph - N/A   Clear
4:53 AM 36.0 °F 27.5 °F 28.0 °F 73% 29.96 in 10.0 mi SSE 12.7 mph - N/A   Clear
5:53 AM 35.1 °F 27.4 °F 27.0 °F 72% 29.97 in 10.0 mi South 10.4 mph - N/A   Clear
6:53 AM 35.1 °F 25.9 °F 27.0 °F 72% 29.96 in 10.0 mi South 13.8 mph - N/A   Clear
7:53 AM 33.1 °F 26.9 °F 26.1 °F 75% 29.97 in 10.0 mi South 6.9 mph - N/A   Clear
8:51 AM 37.4 °F 27.8 °F 28.4 °F 70% 29.92 in 10.0 mi South 17.3 mph - N/A   Scattered Clouds
8:53 AM 37.0 °F 27.4 °F 28.9 °F 73% 29.95 in 10.0 mi South 17.3 mph - N/A   Mostly Cloudy
9:53 AM 39.9 °F 32.1 °F 37.0 °F 89% 29.94 in 5.0 mi South 13.8 mph 23.0 mph N/A   Overcast
10:17 AM 42.8 °F 35.1 °F 39.2 °F 87% 29.91 in 5.0 mi South 16.1 mph - N/A   Overcast
10:41 AM 46.4 °F 39.8 °F 39.2 °F 76% 29.91 in 8.0 mi South 16.1 mph - N/A   Scattered Clouds
10:53 AM 48.9 °F - 39.9 °F 71% 29.92 in 10.0 mi South 15.0 mph 23.0 mph N/A   Clear
11:41 AM 53.6 °F - 42.8 °F 67% 29.88 in 10.0 mi South 20.7 mph 27.6 mph N/A   Mostly Cloudy
11:53 AM 54.0 °F - 42.1 °F 64% 29.88 in 10.0 mi South 25.3 mph 33.4 mph N/A   Overcast
12:53 PM 54.0 °F - 42.1 °F 64% 29.85 in 10.0 mi South 25.3 mph 32.2 mph N/A   Overcast
1:26 PM 55.4 °F - 42.8 °F 63% 29.81 in 10.0 mi South 23.0 mph 33.4 mph N/A   Scattered Clouds
1:53 PM 57.9 °F - 42.1 °F 56% 29.81 in 10.0 mi South 20.7 mph - N/A   Clear
2:53 PM 60.1 °F - 42.1 °F 51% 29.78 in 10.0 mi South 21.9 mph - N/A   Clear
3:53 PM 61.0 °F - 43.0 °F 52% 29.76 in 10.0 mi South 20.7 mph 25.3 mph N/A   Clear
4:53 PM 60.1 °F - 45.0 °F 57% 29.75 in 10.0 mi South 18.4 mph - N/A   Clear
5:53 PM 55.0 °F - 45.0 °F 69% 29.78 in 10.0 mi South 12.7 mph - N/A   Clear
6:53 PM 48.9 °F - 44.1 °F 83% 29.82 in 10.0 mi SSE 9.2 mph - N/A   Clear
7:53 PM 48.0 °F - 45.0 °F 89% 29.83 in 6.0 mi SSE 10.4 mph - N/A   Clear
8:53 PM 46.0 °F 41.0 °F 44.1 °F 93% 29.83 in 4.0 mi SE 10.4 mph - N/A   Clear
9:53 PM 48.0 °F - 46.0 °F 93% 29.83 in 4.0 mi SSE 11.5 mph - N/A   Partly Cloudy
10:05 PM 48.2 °F - 46.4 °F 93% 29.82 in 4.0 mi SSE 11.5 mph - N/A   Mostly Cloudy
10:53 PM 50.0 °F - 48.2 °F 94% 29.83 in 3.0 mi South 9.2 mph - N/A   Overcast
11:00 PM 50.0 °F - 48.2 °F 94% 29.83 in 3.0 mi South 10.4 mph - N/A   Overcast
11:08 PM 51.8 °F - 48.2 °F 88% 29.83 in 2.5 mi South 12.7 mph - N/A   Overcast
11:20 PM 51.8 °F - 50.0 °F 94% 29.83 in 1.8 mi South 9.2 mph - N/A   Overcast
11:53 PM 51.1 °F - 50.0 °F 96% 29.83 in 1.5 mi South 6.9 mph - N/A   Overcast